Weather History for EICK - June, 2013

Change the Weather History Date:

Wednesday, June 26, 2013

  Actual Average Record
Temperature  
Mean Temperature 58 °F -  
Max Temperature 66 °F 65 °F 66 °F (2001)
Min Temperature 49 °F 52 °F 46 °F (2002)
Degree Days  
Heating Degree Days 8    
Growing Degree Days 8 (Base 50)    
Moisture  
Dew Point 48 °F    
Average Humidity 74    
Maximum Humidity 94    
Minimum Humidity 46    
Precipitation  
Precipitation 0.00 in 0.09 in - ()
Sea Level Pressure  
Sea Level Pressure 30.50 in    
Wind  
Wind Speed 9 mph ()    
Max Wind Speed 14 mph    
Max Gust Speed -    
Visibility 7.0 miles    
Events      
Averages and records for this station are not official NWS values.
T = Trace of Precipitation, MM = Missing Value Source: Averaged Metar Reports

Daily Weather History Graph

Daily Weather History Graph

Search for Another Location

Airport or City:

Trip Planner

Search our weather history database for the weather conditions in past years. The results will help you decide how hot, cold, wet, or windy it might be!

Date:

Astronomy

Jun. 26, 2013 Rise Set
Actual Time 5:16 AM IST 9:57 PM IST
Civil Twilight 4:27 AM IST 10:45 PM IST
Nautical Twilight 3:11 AM IST 12:01 AM IST
Astronomical Twilight 2:09 AM IST 1:04 AM IST
Moon 11:38 PM IST (6/26) 9:20 AM IST (6/26)
Length of Visible Light 18h 17m
Length of Day
16h 40m
Waning Gibbous, 87% of the Moon is Illuminated
Jun 26
Waning Gibbous
Jun 30
Last Quarter
Jul 8
New
Jul 16
First Quarter
Jul 22
Full

Hourly Weather History & Observations

Time (IST) Temp. Dew Point Humidity Pressure Visibility Wind Dir Wind Speed Gust Speed Precip Events Conditions
12:00 AM 53.6 °F 48.2 °F 82% 30.48 in 6.2 mi NNW 11.5 mph - N/A   Scattered Clouds
12:30 AM 51.8 °F 48.2 °F 88% 30.48 in 6.2 mi NNW 12.7 mph - N/A   Scattered Clouds
1:00 AM 52 °F 49 °F 84% 30.51 in 19 mi NNW 13.4 mph - -   Mostly Cloudy
1:00 AM 51.8 °F 48.2 °F 88% 30.48 in 6.2 mi NNW 12.7 mph - N/A   Mostly Cloudy
1:30 AM 51.8 °F 48.2 °F 88% 30.48 in 6.2 mi NNW 12.7 mph - N/A   Scattered Clouds
2:00 AM 51.8 °F 48.2 °F 88% 30.48 in 6.2 mi NNW 11.5 mph - N/A   Scattered Clouds
2:30 AM 50.0 °F 48.2 °F 94% 30.48 in 6.2 mi NNW 12.7 mph - N/A   Scattered Clouds
3:00 AM 50.0 °F 48.2 °F 94% 30.48 in 6.2 mi NNW 13.8 mph - N/A   Mostly Cloudy
3:30 AM 50.0 °F 48.2 °F 94% 30.48 in 6.2 mi NNW 12.7 mph - N/A   Mostly Cloudy
4:00 AM 50.0 °F 48.2 °F 94% 30.48 in 6.2 mi NNW 13.8 mph - N/A   Mostly Cloudy
4:30 AM 50.0 °F 48.2 °F 94% 30.48 in 6.2 mi NNW 12.7 mph - N/A   Mostly Cloudy
5:00 AM 50.0 °F 48.2 °F 94% 30.48 in 6.2 mi NNW 11.5 mph - N/A   Mostly Cloudy
5:30 AM 50.0 °F 48.2 °F 94% 30.48 in 6.2 mi NNW 11.5 mph - N/A   Mostly Cloudy
6:00 AM 50.0 °F 48.2 °F 94% 30.48 in 6.2 mi North 11.5 mph - N/A   Scattered Clouds
6:30 AM 50.0 °F 48.2 °F 94% 30.48 in 6.2 mi NNW 12.7 mph - N/A   Scattered Clouds
7:00 AM 50 °F 48 °F 90% 30.52 in 19 mi NNW 11.2 mph - -   Scattered Clouds
7:00 AM 50.0 °F 48.2 °F 94% 30.51 in 6.2 mi NNW 10.4 mph - N/A   Partly Cloudy
7:30 AM 50.0 °F 48.2 °F 94% 30.51 in 6.2 mi NW 10.4 mph - N/A   Partly Cloudy
8:00 AM 51.8 °F 48.2 °F 88% 30.51 in 6.2 mi NNW 10.4 mph - N/A   Mostly Cloudy
8:30 AM 53.6 °F 48.2 °F 82% 30.51 in 6.2 mi NNW 10.4 mph - N/A   Scattered Clouds
9:00 AM 55.4 °F 48.2 °F 77% 30.51 in 6.2 mi NNW 13.8 mph - N/A   Partly Cloudy
9:30 AM 55.4 °F 48.2 °F 77% 30.51 in 6.2 mi NNW 10.4 mph - N/A   Partly Cloudy
10:00 AM 57.2 °F 48.2 °F 72% 30.51 in 6.2 mi North 8.1 mph - N/A   Partly Cloudy
10:30 AM 59.0 °F 48.2 °F 67% 30.51 in 6.2 mi North 6.9 mph - N/A   Scattered Clouds
11:00 AM 59.0 °F 48.2 °F 67% 30.54 in 6.2 mi NNW 5.8 mph - N/A   Scattered Clouds
11:30 AM 59.0 °F 46.4 °F 63% 30.51 in 6.2 mi WNW 6.9 mph - N/A   Mostly Cloudy
12:00 PM 60.8 °F 46.4 °F 59% 30.51 in 6.2 mi West 6.9 mph - N/A   Scattered Clouds
12:30 PM 60.8 °F 48.2 °F 63% 30.51 in 6.2 mi North 4.6 mph - N/A   Scattered Clouds
1:00 PM 61 °F 47 °F 50% 30.53 in 25 mi NW 6.7 mph - -   Mostly Cloudy
1:00 PM 60.8 °F 46.4 °F 59% 30.51 in 6.2 mi NW 5.8 mph - N/A   Scattered Clouds
1:30 PM 62.6 °F 48.2 °F 59% 30.51 in 6.2 mi NNW 5.8 mph - N/A   Mostly Cloudy
2:00 PM 60.8 °F 48.2 °F 63% 30.51 in 6.2 mi North 5.8 mph - N/A   Mostly Cloudy
2:30 PM 62.6 °F 46.4 °F 55% 30.51 in 6.2 mi Variable 3.5 mph - N/A   Mostly Cloudy
3:00 PM 64.4 °F 48.2 °F 56% 30.51 in 6.2 mi North 4.6 mph - N/A   Mostly Cloudy
3:30 PM 64.4 °F 46.4 °F 52% 30.51 in 6.2 mi NNW 2.3 mph - N/A   Mostly Cloudy
4:00 PM 62.6 °F 50.0 °F 63% 30.51 in 6.2 mi South 8.1 mph - N/A   Mostly Cloudy
4:30 PM 62.6 °F 51.8 °F 68% 30.51 in 6.2 mi South 10.4 mph - N/A   Mostly Cloudy
5:00 PM 66.2 °F 46.4 °F 49% 30.51 in 6.2 mi WSW 5.8 mph - N/A   Mostly Cloudy
5:30 PM 66.2 °F 46.4 °F 49% 30.51 in 6.2 mi NW 9.2 mph - N/A   Scattered Clouds
6:00 PM 66.2 °F 44.6 °F 46% 30.51 in 6.2 mi NNW 8.1 mph - N/A   Scattered Clouds
6:30 PM 66.2 °F 46.4 °F 49% 30.51 in 6.2 mi WSW 4.6 mph - N/A   Scattered Clouds
7:00 PM 63 °F 51 °F 54% 30.51 in 19 mi WNW 6.7 mph - -   Partly Cloudy
7:00 PM 62.6 °F 50.0 °F 63% 30.51 in 6.2 mi WNW 5.8 mph - N/A   Scattered Clouds
7:30 PM 62.6 °F 50.0 °F 63% 30.51 in 6.2 mi SSW 6.9 mph - N/A   Partly Cloudy
8:00 PM 60.8 °F 50.0 °F 68% 30.51 in 6.2 mi SW 6.9 mph - N/A   Mostly Cloudy
8:30 PM 62.6 °F 48.2 °F 59% 30.51 in 6.2 mi WSW 4.6 mph - N/A   Mostly Cloudy
9:00 PM 60.8 °F 48.2 °F 63% 30.51 in 6.2 mi WSW 3.5 mph - N/A   Mostly Cloudy
9:30 PM 59.0 °F 50.0 °F 72% 30.51 in 6.2 mi NNW 11.5 mph - N/A   Mostly Cloudy
10:00 PM 57.2 °F 50.0 °F 77% 30.51 in 6.2 mi NNW 13.8 mph - N/A   Mostly Cloudy
10:30 PM 55.4 °F 48.2 °F 77% 30.54 in 6.2 mi NNW 12.7 mph - N/A   Mostly Cloudy
11:00 PM 53.6 °F 48.2 °F 82% 30.54 in 6.2 mi NW 12.7 mph - N/A   Mostly Cloudy
11:30 PM 53.6 °F 48.2 °F 82% 30.54 in 6.2 mi NNW 13.8 mph - N/A   Mostly Cloudy